EW8487 Weather Reports


time (UTC)temp
C
wind
direction
speed
KPH
gust
KPH
rain 1hr
cm
rain 24hr
cm
rain mn
cm
humidity
%
barometer
mb
20260508091031 12 318 0.0 3.2 0.00 0.76 0.00 82 1010.3
20260508085525 10 180 0.0 3.2 0.00 0.76 0.00 87 1010.1
20260508084018 9 184 0.0 3.2 0.00 0.76 0.00 93 1010.1
20260508082513 9 154 3.2 3.2 0.00 0.76 0.00 92 1009.8
20260508081005 9 216 0.0 3.2 0.00 0.76 0.00 92 1010.0
20260508075508 9 205 0.0 4.8 0.00 0.76 0.00 91 1010.1
20260508072508 9 36 0.0 1.6 0.00 0.76 0.00 92 1009.8
20260508071005 8 125 1.6 1.6 0.00 0.76 0.00 92 1009.7
20260508065508 8 176 1.6 3.2 0.00 0.76 0.00 93 1009.4
20260508064004 8 226 0.0 1.6 0.00 0.76 0.00 95 1009.2
20260508061004 8 200 0.0 1.6 0.00 0.76 0.00 96 1008.8
20260508055508 8 294 0.0 1.6 0.00 0.76 0.00 96 1008.9
20260508054004 8 245 0.0 1.6 0.00 0.76 0.00 96 1008.7
20260508052507 8 252 0.0 0.0 0.00 0.76 0.00 96 1008.5
20260508045507 7 260 0.0 1.6 0.00 0.76 0.00 96 1008.6
20260508044004 7 203 0.0 1.6 0.00 0.76 0.00 96 1008.5
20260508042507 7 207 0.0 1.6 0.00 0.76 0.00 95 1008.7
20260508041003 8 319 0.0 1.6 0.00 0.76 0.00 95 1008.9
20260508035507 7 224 0.0 1.6 0.00 0.76 0.00 96 1008.6
20260508034003 7 49 0.0 1.6 0.00 0.76 0.00 96 1008.7
20260508032507 7 4 1.6 1.6 0.00 0.76 0.00 97 1008.7
20260508031002 7 271 0.0 1.6 0.00 0.76 0.00 98 1009.0
20260508025508 6 235 0.0 1.6 0.00 0.76 0.00 98 1008.9
20260508021003 7 226 0.0 1.6 0.00 0.76 0.00 98 1008.5
20260508014003 7 297 0.0 1.6 0.00 0.76 0.00 98 1009.0
20260508011007 7 229 1.6 1.6 0.00 0.76 0.00 98 1009.7
20260508005507 7 267 0.0 1.6 0.00 0.76 0.00 98 1009.9
20260508004003 6 271 0.0 1.6 0.00 0.76 0.00 97 1009.8
20260508002507 6 252 0.0 1.6 0.00 0.76 0.00 97 1009.7
20260508001004 6 295 0.0 0.0 0.00 0.76 0.00 97 1009.7
20260507235508 6 239 0.0 1.6 0.00 0.76 0.00 97 1009.9
20260507234042 7 231 0.0 1.6 0.00 0.76 0.00 97 1009.9
20260507232535 7 225 0.0 1.6 0.00 0.76 0.00 96 1009.9
20260507231024 7 228 0.0 1.6 0.00 0.76 0.00 96 1010.2
20260507225522 7 249 0.0 1.6 0.00 0.76 0.00 96 1010.2
20260507224012 7 280 0.0 1.6 0.00 0.76 0.00 96 1010.3
20260507222508 7 249 0.0 1.6 0.00 0.76 0.00 96 1010.5
20260507221004 8 233 0.0 1.6 0.00 0.76 0.00 95 1010.3
20260507215507 8 291 1.6 1.6 0.00 0.76 0.76 95 1010.8
20260507214004 8 306 0.0 1.6 0.00 0.76 0.76 95 1010.4
20260507212507 7 224 0.0 1.6 0.00 0.76 0.76 95 1010.6
20260507211004 8 290 0.0 1.6 0.00 0.76 0.76 95 1010.4
20260507205508 7 238 1.6 1.6 0.00 0.76 0.76 94 1010.1
20260507204004 8 231 0.0 1.6 0.00 0.76 0.76 94 1009.9
20260507202506 8 241 0.0 1.6 0.00 0.76 0.76 93 1009.8
20260507201002 8 246 0.0 1.6 0.00 0.76 0.76 91 1009.6
20260507195507 8 193 0.0 1.6 0.00 0.76 0.76 91 1009.5
20260507194003 9 6 0.0 1.6 0.00 0.76 0.76 90 1009.5
20260507192509 9 231 0.0 1.6 0.00 0.76 0.76 90 1009.2
20260507191002 10 106 0.0 1.6 0.00 0.76 0.76 88 1008.9
20260507181004 11 169 0.0 3.2 0.00 0.76 0.76 79 1008.2
20260507175506 11 122 1.6 3.2 0.00 0.76 0.76 77 1008.0
20260507174003 12 194 0.0 3.2 0.00 0.76 0.76 75 1008.1
20260507165506 12 61 1.6 3.2 0.00 0.76 0.76 75 1007.8
20260507164003 12 178 1.6 3.2 0.00 0.76 0.76 75 1008.0
20260507162507 12 91 0.0 1.6 0.00 0.76 0.76 80 1007.8
20260507161003 11 151 1.6 3.2 0.00 0.76 0.76 83 1007.5
20260507155506 11 179 1.6 3.2 0.03 0.74 0.76 86 1007.9
20260507154002 10 194 1.6 3.2 0.10 0.74 0.76 93 1007.7
20260507152506 9 165 1.6 3.2 0.20 0.74 0.76 95 1007.8
20260507151003 8 131 0.0 1.6 0.33 0.74 0.76 95 1008.1
20260507145506 8 127 0.0 1.6 0.43 0.36 0.74 96 1008.4
20260507142507 8 192 0.0 1.6 0.30 0.36 0.56 95 1009.0
20260507141003 8 205 0.0 1.6 0.30 0.36 0.43 94 1009.0
20260507135506 9 223 0.0 1.6 0.05 0.05 0.28 94 1008.8
20260507134002 10 174 0.0 3.2 0.05 0.05 0.08 94 1008.7
20260507132512 10 28 0.0 0.0 0.00 0.00 0.00 93 1008.4
20260507131055 10 103 1.6 6.4 0.08 0.05 0.08 92 1008.2
20260507124055 11 95 1.6 9.7 0.00 0.00 0.00 80 1007.9
20260507122556 12 22 3.2 8.0 0.00 0.00 0.00 77 1007.9
20260507121055 18 157 1.6 6.4 0.00 0.00 0.00 48 1007.6
20260507115555 17 79 0.0 6.4 0.00 0.00 0.00 53 1007.7
20260507112554 17 179 1.6 6.4 0.00 0.00 0.00 57 1008.1
20260507111055 15 183 1.6 3.2 0.00 0.00 0.00 60 1008.3
20260507101059 14 209 1.6 3.2 0.00 0.00 0.00 66 1008.7
20260507095555 13 233 1.6 3.2 0.00 0.00 0.00 68 1008.7
20260507092633 12 217 1.6 3.2 0.00 0.00 0.00 73 1009.0